Theta_e
336 338 344 345 347 349 350 350 350 351 351 350 350 350 351 351 350 350 350 350 350 350 350 350 350 350 349 349 349 349 349 350 349 349 348 348 348 349 349 349 349 349 349 350 351 350 351 350 350 351 349 348 346 345 343 342 342 341 340 340 340 341 342 342 343 343 342 345 348 350 352 351 350 349 350 350 350 349 349 350 351 351 352 352 353
333 339 344 347 347 349 349 351 351 350 351 351 351 350 351 351 350 350 350 350 350 350 350 350 350 349 349 349 349 349 349 349 348 348 348 348 348 348 349 349 349 349 349 349 350 349 350 349 349 349 348 346 344 342 341 340 340 339 338 338 338 339 340 340 341 341 341 342 343 345 346 351 350 350 350 349 350 350 349 349 350 350 351 352 353
337 339 344 348 346 349 350 350 350 351 351 351 351 351 350 350 350 350 350 350 350 349 350 350 349 349 349 349 349 348 348 348 348 348 348 348 348 348 348 348 349 349 349 348 349 349 349 348 347 346 345 343 341 340 340 339 338 337 337 336 336 337 338 339 340 339 340 340 342 344 344 346 350 350 350 349 349 349 348 348 349 348 351 351 350
336 339 345 347 344 347 350 350 350 350 350 351 350 350 350 349 350 350 350 350 350 350 349 349 349 349 349 348 348 348 348 347 347 348 348 348 348 347 348 348 348 348 348 349 348 348 347 345 345 344 342 341 340 339 338 337 337 336 335 334 335 336 338 339 339 339 338 338 340 342 348 350 349 349 350 349 349 349 347 347 348 348 349 350 351
335 340 344 347 348 346 349 351 351 350 350 350 350 350 350 349 349 349 349 349 349 349 349 348 349 348 348 347 348 348 348 347 347 347 347 347 347 347 347 347 347 347 347 347 347 345 345 344 343 342 340 338 337 336 335 335 335 334 333 333 333 336 338 338 339 338 337 337 339 343 346 348 349 348 349 350 349 348 347 346 347 348 348 348 350
336 341 345 346 348 349 346 350 350 350 350 350 349 349 349 349 349 349 349 349 349 349 348 348 348 348 348 347 348 347 346 347 346 346 346 345 346 346 346 346 346 346 346 346 346 344 343 343 342 340 338 336 335 334 334 333 333 333 332 332 334 335 337 337 337 336 336 336 339 345 345 347 347 348 347 349 349 347 347 346 346 347 347 347 347
337 342 345 346 347 347 343 349 350 351 350 350 349 349 349 349 349 349 349 349 349 348 347 348 348 347 347 347 347 347 346 346 345 345 345 344 344 344 343 344 345 345 345 345 344 343 342 342 340 338 337 335 334 332 332 332 332 331 331 332 334 335 335 334 334 334 334 339 343 344 344 345 347 349 348 348 348 347 347 347 347 346 346 346 345
338 343 344 344 346 345 343 349 350 350 350 350 349 349 349 349 348 348 349 348 348 348 348 348 347 347 347 347 347 346 345 345 344 343 342 342 342 342 341 341 342 342 342 342 342 341 340 339 338 336 335 333 332 332 330 330 330 330 330 330 331 332 331 331 330 331 334 340 343 344 344 345 346 349 348 348 347 348 347 347 347 347 347 347 345
336 342 343 344 346 344 343 347 350 350 350 350 349 348 348 348 348 348 348 348 348 347 347 346 346 347 346 346 346 345 345 344 342 341 340 339 339 339 338 339 339 340 340 340 339 338 337 337 336 335 333 332 331 330 329 329 329 329 329 329 329 329 328 328 328 329 335 339 341 343 345 344 345 346 347 347 347 347 346 346 346 347 347 345 345
336 341 343 343 345 341 342 347 349 349 350 349 348 348 348 347 347 347 347 347 347 346 346 346 346 346 346 345 345 344 343 342 340 339 338 337 337 336 338 338 338 337 338 337 336 337 335 335 334 333 332 330 329 328 328 327 327 327 327 328 328 328 326 325 325 331 335 337 339 341 342 341 345 346 346 346 346 344 343 341 342 342 344 344 344
336 340 342 343 346 339 343 348 348 349 349 348 348 347 347 347 347 347 347 347 346 346 346 346 346 345 345 344 343 342 341 339 338 338 336 336 335 336 336 336 335 335 335 335 334 335 334 334 333 332 330 328 326 326 326 325 325 326 326 326 326 325 324 323 326 333 334 336 337 339 340 339 342 345 345 344 343 342 341 341 341 341 342 342 342
336 339 342 343 340 336 341 346 348 349 348 348 347 347 347 347 346 346 346 346 346 346 346 345 345 345 344 343 342 341 340 339 339 336 335 335 335 334 335 334 333 333 333 332 332 333 333 332 331 329 327 325 324 324 324 324 323 323 323 324 323 322 321 321 328 330 332 334 335 337 340 339 339 341 342 342 342 341 339 339 340 340 340 340 340
335 338 340 343 345 335 338 344 346 347 347 346 346 346 346 345 345 345 345 345 344 345 344 344 344 344 343 342 341 340 338 337 333 333 331 331 333 332 333 332 331 332 332 331 331 331 331 330 328 327 326 324 324 323 323 322 321 321 321 321 320 319 318 319 326 328 330 332 333 336 339 340 339 338 339 339 339 339 339 338 338 338 338 338 338
334 336 339 341 343 335 335 340 342 346 346 345 345 344 344 344 344 343 344 344 343 343 343 343 343 341 341 340 339 339 337 334 332 331 331 331 331 331 331 331 331 331 331 331 332 331 330 328 327 325 324 324 323 322 322 321 320 320 319 318 317 316 314 319 323 327 328 329 331 334 337 336 336 336 337 338 338 338 337 337 336 336 335 335 335
334 337 338 339 340 340 331 335 337 340 343 344 343 343 343 343 343 343 343 343 343 342 342 342 342 340 339 338 338 336 336 333 332 332 331 331 331 331 331 330 330 331 331 331 330 329 328 328 326 324 323 322 321 321 321 320 319 318 317 316 315 314 314 320 322 325 326 327 329 333 335 334 334 334 335 336 336 336 336 336 335 335 335 334 334
335 336 337 337 339 341 339 332 332 334 335 339 341 341 342 342 341 341 341 340 342 342 342 340 340 340 338 336 337 335 335 332 332 331 331 331 331 331 331 330 330 331 330 330 330 329 328 327 325 323 322 321 320 320 319 318 317 316 314 313 312 312 311 316 321 323 324 326 328 331 332 332 331 332 332 333 333 334 335 335 334 334 334 334 333
333 335 335 336 338 339 340 339 336 328 330 332 334 337 337 338 338 339 339 339 339 339 338 337 337 337 334 336 336 336 334 332 331 331 330 330 330 329 329 328 329 330 330 330 329 328 326 325 323 322 321 320 319 318 317 316 315 313 312 312 311 310 309 314 319 320 321 323 326 329 330 330 329 330 330 330 330 331 332 333 333 332 333 333 332
332 334 334 335 336 337 339 340 339 337 338 332 328 331 333 335 336 336 336 337 337 337 337 335 335 335 334 333 333 332 332 332 330 330 330 329 329 328 328 328 329 329 328 328 327 326 325 324 323 321 320 319 317 317 315 314 313 312 311 310 309 308 307 311 317 318 320 322 325 328 328 327 327 328 328 329 328 329 330 330 330 330 331 331 331
330 331 333 335 335 336 336 338 338 338 338 337 337 336 328 331 333 333 333 335 335 334 334 333 333 332 331 330 329 328 327 328 329 329 329 329 329 327 328 328 328 328 328 327 326 325 324 323 322 321 319 318 316 315 314 312 310 309 308 307 304 304 305 311 314 317 318 321 324 326 325 326 325 327 327 326 327 327 328 328 329 329 329 329 330
329 329 330 333 334 335 336 336 336 337 337 337 338 337 329 327 330 331 331 332 332 331 331 331 327 325 325 325 323 327 325 327 322 326 326 328 326 325 326 328 327 327 326 326 325 324 323 322 321 319 318 316 315 313 311 310 309 307 306 304 302 305 307 310 312 314 316 317 322 324 322 325 325 326 326 325 325 326 326 327 327 327 327 328 328
325 327 329 330 332 333 334 334 335 335 335 336 336 337 336 326 327 326 326 327 328 328 328 324 320 319 321 319 320 328 329 329 328 327 321 328 319 320 325 327 326 325 324 324 324 323 322 322 320 319 317 315 313 311 309 308 307 306 303 301 303 303 305 307 310 311 314 317 320 322 321 324 324 325 325 324 324 325 326 326 326 327 327 328 327
324 324 326 328 329 331 332 333 333 333 334 335 335 336 336 330 333 333 333 330 326 323 328 330 323 330 321 325 328 327 327 328 326 322 326 326 323 318 321 325 325 323 322 322 322 321 321 320 318 316 314 311 308 307 304 303 303 302 301 300 302 302 304 305 307 309 312 315 318 318 320 323 324 324 324 324 324 324 324 325 325 325 325 326 326
323 324 325 326 328 329 330 330 332 332 333 333 333 333 334 332 333 333 332 328 328 329 330 329 329 329 329 328 326 327 327 327 326 324 325 319 323 317 320 323 323 321 321 320 320 318 317 316 314 311 308 304 304 304 303 301 299 298 301 303 301 302 303 303 304 307 310 312 316 314 320 322 323 323 323 323 323 323 323 324 324 324 324 324 324
323 324 324 326 326 327 329 330 330 331 331 331 332 331 332 332 331 331 330 330 331 330 330 330 329 328 328 326 326 325 325 324 316 314 316 323 322 316 317 318 319 319 317 318 317 316 315 312 309 306 303 305 303 301 302 302 301 302 302 301 301 302 302 302 302 304 308 310 314 313 317 321 322 322 322 322 323 323 323 323 323 323 323 323 323
324 325 325 324 324 326 327 328 330 330 330 330 330 330 331 330 330 329 328 328 328 329 329 329 329 328 327 326 325 323 323 322 322 322 321 321 322 322 321 321 320 319 315 317 316 314 311 307 303 301 302 303 303 302 302 301 301 302 301 300 301 301 301 301 301 302 305 310 311 311 314 320 321 322 322 323 322 322 322 322 322 322 322 322 322
324 322 323 324 324 325 326 327 328 329 329 329 328 329 329 329 328 328 328 327 328 327 327 326 326 326 325 324 321 321 321 320 320 320 320 320 320 320 320 320 319 318 316 316 313 310 306 303 302 302 301 302 302 302 302 301 301 300 300 301 301 301 301 300 300 301 303 307 310 309 313 317 320 322 322 322 322 322 322 322 322 322 322 321 320
320 321 323 324 324 324 325 326 325 326 327 328 328 328 327 329 328 328 327 326 326 326 325 324 324 323 323 321 319 318 318 317 318 319 318 320 319 319 318 317 316 314 313 311 308 305 302 301 301 301 301 301 301 302 301 302 302 301 301 301 300 300 300 300 301 301 302 306 308 307 311 315 320 321 321 322 322 322 322 322 322 321 321 320 320
320 320 321 322 323 323 324 324 324 324 324 325 326 326 327 327 326 325 325 325 324 325 324 323 321 319 319 319 317 317 316 315 316 316 317 317 317 316 315 313 313 311 309 308 305 302 301 301 302 302 301 301 300 300 300 300 301 301 301 301 301 300 300 300 300 301 302 304 308 306 310 314 317 319 320 321 321 322 321 321 321 320 319 320 319
316 318 320 321 322 323 323 322 323 323 323 324 324 325 326 326 325 324 324 322 324 324 324 322 318 317 317 317 316 315 315 314 314 315 315 315 315 313 311 310 310 308 306 304 303 301 300 300 300 300 300 300 299 300 299 299 299 300 300 300 300 300 300 300 300 300 301 302 305 306 307 311 314 316 318 320 320 320 321 320 320 319 319 319 319
315 317 318 319 321 322 322 322 322 323 323 323 323 323 324 324 324 324 324 323 323 324 322 319 318 315 314 314 315 314 313 312 313 313 312 313 312 311 309 308 306 305 303 302 301 300 300 300 300 300 300 300 299 299 299 299 299 299 299 300 299 298 299 299 300 300 301 301 304 306 303 307 311 314 316 318 319 320 320 319 318 318 318 318 318
314 315 316 318 320 320 321 322 322 322 323 322 322 322 323 322 323 324 324 322 322 322 319 319 317 314 313 313 313 313 312 312 311 311 310 311 310 309 307 306 304 303 302 301 301 301 300 300 300 299 299 299 299 298 298 299 299 298 299 299 299 298 299 299 299 300 300 300 302 305 304 303 307 311 314 315 316 317 317 317 317 317 318 318 317
313 313 315 317 318 318 319 321 322 322 321 321 321 321 322 322 323 323 322 322 322 319 318 317 315 314 312 311 311 311 310 310 310 309 309 309 308 307 306 304 303 301 301 301 300 301 300 301 302 301 301 300 298 298 299 298 298 298 298 298 298 298 298 299 299 299 299 300 301 302 304 304 303 307 309 312 313 314 315 315 316 316 317 317 317
313 314 314 315 315 317 318 319 321 321 320 320 321 321 321 322 322 322 322 321 320 319 317 315 315 314 311 310 310 310 309 309 308 308 307 307 306 305 304 303 302 301 300 301 301 301 300 299 299 299 299 299 298 298 300 298 298 297 298 298 297 298 298 298 298 298 299 300 300 300 301 301 304 303 304 306 309 311 312 313 314 315 316 316 315
314 314 313 313 314 316 317 318 319 320 320 321 320 320 320 321 321 321 321 319 319 317 316 315 313 312 311 310 309 308 307 307 307 306 305 305 305 304 303 301 301 301 300 300 299 298 298 298 297 297 297 297 297 297 296 297 297 297 297 297 297 297 298 298 297 297 298 299 299 300 299 298 299 303 303 302 304 306 309 310 311 312 313 313 313
312 312 312 312 312 313 315 315 317 319 319 319 319 319 320 320 320 320 319 318 318 317 316 314 312 311 310 309 308 307 306 306 306 305 304 303 303 302 302 301 301 300 299 299 298 298 298 298 296 296 296 297 298 297 298 297 296 297 296 296 296 297 297 297 297 297 297 297 298 299 299 297 297 298 300 300 300 301 303 306 308 310 311 311 312
310 311 312 312 311 312 313 314 316 317 318 318 319 319 319 319 319 316 318 318 317 316 315 314 312 310 308 308 307 306 305 305 304 304 303 302 301 301 301 301 300 299 299 299 299 297 297 298 297 298 295 296 297 296 297 297 297 297 296 296 296 296 296 296 296 296 296 296 296 297 297 297 297 296 297 297 297 298 299 301 303 305 306 307 309
310 310 311 311 310 311 311 312 313 315 316 317 318 318 318 318 317 317 316 316 315 314 314 313 312 309 307 306 306 305 304 304 303 303 302 301 300 300 300 301 300 298 299 298 297 298 298 298 297 298 297 296 296 296 296 296 296 296 295 296 296 296 296 296 296 295 297 296 295 296 296 296 295 296 295 295 295 295 295 296 298 300 301 303 305
310 310 311 311 310 310 310 311 312 314 315 316 316 317 317 317 316 315 314 313 314 314 313 312 310 309 307 305 305 304 303 303 303 302 301 301 300 300 300 300 299 299 298 297 297 298 298 297 295 296 297 296 295 295 295 296 296 295 294 295 295 295 296 296 295 294 295 295 295 295 295 295 295 295 295 295 295 295 295 293 293 295 296 299 302
309 309 309 310 310 310 310 309 310 312 313 315 316 316 315 315 315 314 312 312 312 312 312 310 310 309 306 305 304 303 302 302 302 301 301 300 299 299 299 299 298 298 298 297 297 297 297 297 296 295 296 297 296 296 296 296 295 295 294 293 294 295 295 296 294 295 294 295 295 295 295 294 295 295 295 295 294 295 295 295 294 295 294 295 298
308 308 308 309 309 309 309 309 308 309 311 312 313 313 313 312 310 310 310 309 310 309 309 309 309 307 306 305 304 303 302 301 301 301 300 299 299 298 298 299 298 298 297 296 296 295 295 296 296 295 294 294 296 297 296 294 294 293 292 292 293 293 294 293 294 294 294 295 294 293 294 294 294 294 294 294 294 294 294 294 293 294 294 293 293
307 307 306 307 308 308 308 307 307 308 308 309 310 310 310 310 310 309 308 309 308 308 307 308 307 306 306 304 304 302 302 301 301 300 299 298 298 298 298 297 298 297 297 297 297 296 296 296 296 295 294 293 293 296 296 296 293 292 292 292 292 292 292 293 293 293 293 293 293 293 293 293 294 294 294 294 294 294 293 293 293 293 293 295 293
305 304 305 307 307 307 307 307 307 306 306 307 308 309 310 310 309 308 308 308 307 305 305 306 306 306 304 304 303 302 302 301 300 300 299 299 297 297 297 296 297 297 297 298 298 297 296 295 295 294 295 293 292 294 296 295 293 292 290 290 290 291 291 291 291 292 293 293 293 294 293 293 293 293 293 293 293 293 293 292 293 293 293 293 294
306 306 306 306 307 307 307 307 307 306 306 306 307 308 309 309 308 308 307 307 307 307 307 306 305 304 303 303 302 302 301 301 300 300 299 298 297 296 296 296 297 297 297 297 297 296 295 295 294 293 292 295 294 295 295 297 293 296 295 292 290 289 290 289 291 291 291 292 292 293 293 293 293 293 293 292 292 292 292 292 292 292 292 293 293
306 305 304 305 305 306 306 306 306 306 305 305 305 307 308 308 308 306 305 306 304 304 304 303 302 302 301 302 301 301 301 300 300 299 298 298 297 296 296 296 296 297 297 296 295 295 294 294 294 294 293 291 292 291 295 296 297 295 291 292 293 292 290 289 289 290 291 291 291 291 292 292 292 292 293 292 292 292 291 292 291 291 291 292 292
307 307 306 305 304 305 306 306 306 305 305 305 305 306 306 305 305 305 304 303 302 302 301 301 301 301 300 300 300 300 300 300 300 299 298 298 298 297 296 296 296 296 297 296 295 295 295 295 294 294 293 292 291 291 292 295 295 298 297 291 289 289 292 294 290 290 290 289 290 291 291 292 291 291 291 292 292 292 292 291 291 291 291 291 292
305 304 304 304 304 305 305 306 306 305 305 305 304 304 304 303 302 301 300 299 299 299 298 299 300 299 299 301 300 299 299 299 299 299 298 297 297 297 297 296 296 296 296 296 296 295 295 294 294 294 294 294 293 292 290 292 294 295 295 298 299 295 294 292 291 288 290 291 292 291 291 291 292 291 291 291 292 292 291 291 291 291 290 291 291
303 304 304 303 303 304 304 305 305 305 305 304 304 303 303 303 302 301 301 300 299 300 301 301 300 300 300 299 299 299 299 299 299 298 298 297 297 297 297 296 296 296 296 296 295 295 295 295 295 294 294 295 296 292 292 291 291 291 293 294 295 291 298 292 290 294 287 289 289 290 290 291 291 291 291 291 291 291 291 291 291 290 290 290 291
304 304 303 303 303 303 303 304 304 304 304 304 304 303 302 302 302 301 301 301 300 301 301 300 300 300 299 298 298 298 298 298 298 298 297 297 297 297 297 296 295 295 295 295 295 295 295 295 295 294 295 294 296 293 293 292 289 290 292 291 290 292 294 296 299 295 294 290 288 290 291 290 290 290 290 291 291 290 291 290 290 290 290 290 290
304 303 302 302 303 303 303 303 303 303 304 303 303 303 302 302 302 302 301 301 302 302 302 300 299 299 298 298 297 297 297 297 298 297 297 297 296 296 296 296 295 295 294 295 295 296 295 294 293 293 294 293 295 295 295 293 292 292 290 290 292 291 292 294 294 296 295 293 292 289 288 289 289 289 290 291 291 291 291 290 290 290 290 290 290
303 303 302 302 302 303 302 302 302 303 303 302 302 302 302 302 302 302 301 301 301 301 301 300 299 299 298 297 297 296 296 296 296 297 297 297 296 296 296 295 295 295 293 294 295 296 295 295 294 293 293 294 294 294 295 296 294 295 293 293 291 291 291 290 291 292 293 296 294 291 291 288 286 288 290 290 290 290 290 290 289 289 289 290 290
300 300 300 301 300 300 301 301 301 302 302 302 302 301 302 302 301 301 301 301 301 301 300 299 299 299 297 297 297 296 296 295 296 296 296 296 296 296 295 295 295 294 293 294 294 294 294 294 294 294 293 293 293 293 295 297 295 296 294 293 292 291 291 290 290 292 292 291 291 293 293 292 291 290 289 290 290 290 290 289 289 289 289 289 290
Wind_Speed
9 8 9 14 13 14 16 16 15 14 14 14 13 13 13 12 13 13 12 12 12 11 11 11 10 10 9 8 8 7 7 7 7 6 6 6 6 6 6 6 6 7 7 9 9 10 10 10 11 12 15 15 14 12 11 11 11 11 12 12 12 12 12 12 12 11 11 10 10 10 10 11 11 11 11 12 12 12 10 8 8 6 6 9 11
16 10 9 12 12 12 16 16 16 15 14 14 13 13 13 12 12 12 12 12 11 11 11 10 10 10 9 8 8 7 7 7 7 7 7 6 6 6 6 6 7 7 8 9 10 10 11 11 13 14 14 14 13 11 10 10 11 11 11 11 12 12 12 12 11 11 10 10 8 9 9 10 11 11 11 12 12 13 12 11 11 6 7 10 10
14 11 9 12 12 10 14 16 16 16 15 15 14 13 12 11 11 10 10 11 11 11 10 10 9 9 9 8 8 8 7 7 8 8 8 8 7 7 7 8 8 8 9 10 12 13 12 12 12 14 14 13 11 10 9 9 9 10 10 11 11 11 11 11 11 10 9 8 6 5 9 10 9 11 11 12 13 13 13 13 12 10 9 11 9
12 10 10 11 11 10 12 14 15 15 15 15 14 13 12 12 10 9 9 9 9 9 10 10 9 9 9 8 8 7 8 8 8 9 9 9 9 8 8 9 9 10 10 10 11 11 11 11 11 13 14 12 11 9 9 8 9 9 9 9 10 10 10 10 9 9 8 7 5 1 5 6 8 9 11 12 12 13 12 12 11 13 13 12 12
12 10 10 11 12 10 11 11 14 15 14 15 14 14 13 12 11 11 9 10 9 9 9 9 9 9 9 9 9 8 9 9 9 9 10 10 9 8 8 8 9 10 11 11 11 10 11 11 12 13 13 12 10 9 8 8 9 9 9 8 9 9 8 8 8 7 6 4 4 3 5 6 6 8 10 12 12 11 11 12 13 12 11 12 13
10 9 10 11 12 14 10 12 14 15 14 15 14 14 13 12 12 11 11 11 11 10 10 10 10 9 10 10 10 10 10 11 10 10 10 9 9 8 8 8 9 9 9 10 10 9 10 12 12 12 12 12 10 9 9 8 8 9 9 9 8 8 8 7 6 5 3 2 2 4 4 4 5 6 9 11 12 11 11 12 12 12 11 11 11
10 9 10 12 12 14 11 11 16 15 15 15 14 14 12 12 12 12 12 11 11 11 11 10 11 10 10 10 11 11 10 10 10 9 9 8 7 7 7 7 8 8 7 7 8 9 7 10 12 11 11 11 10 9 9 8 8 8 8 9 9 9 9 8 7 5 2 4 2 3 3 4 5 5 9 9 11 11 11 12 12 12 11 10 10
9 7 11 12 12 12 11 12 15 15 16 15 15 13 13 12 11 11 11 11 10 10 11 11 10 11 11 12 12 11 10 10 9 8 8 8 7 5 4 5 5 5 6 6 7 7 6 9 11 10 11 11 10 9 8 8 8 8 8 8 8 8 8 7 7 5 6 1 2 2 3 3 4 5 8 9 10 10 11 12 12 13 13 12 8
10 10 12 12 12 12 11 12 14 17 16 16 15 14 12 11 11 11 10 10 10 10 11 11 11 12 12 12 12 11 10 9 8 7 6 5 4 3 2 3 2 5 4 5 5 4 5 8 10 10 11 10 10 9 9 9 8 8 8 8 8 8 8 7 6 6 1 3 3 3 2 3 3 6 9 11 12 13 12 9 11 13 14 12 10
10 10 13 12 12 10 10 11 15 17 17 16 15 14 14 13 11 10 10 10 10 9 10 11 12 12 12 12 11 11 9 9 7 6 5 3 3 1 6 6 4 4 5 4 4 4 4 8 9 10 10 10 10 9 9 9 9 9 9 9 9 9 8 6 4 5 3 3 4 5 4 8 5 5 11 12 13 13 13 12 10 10 9 11 12
11 11 13 12 13 10 9 11 13 14 16 16 17 16 16 14 13 13 12 11 11 10 10 11 11 11 12 11 10 9 9 6 9 7 4 4 4 5 6 5 5 5 5 5 5 5 5 9 10 10 10 10 9 9 9 9 9 9 9 9 9 9 8 6 4 4 4 4 4 4 4 5 5 7 12 11 12 13 12 11 9 10 11 12 12
11 13 13 11 8 7 8 10 12 13 14 14 16 16 16 14 14 14 14 13 13 12 13 12 12 11 10 10 9 10 8 8 12 9 9 9 7 7 7 6 5 6 5 6 6 6 8 9 10 10 10 9 9 9 9 9 9 9 10 10 9 9 8 7 4 4 4 5 5 5 4 2 5 7 8 9 10 11 10 9 9 10 11 11 11
11 13 12 11 11 6 8 10 10 13 12 13 14 15 15 15 14 13 12 13 12 11 11 11 10 10 10 9 9 8 8 9 3 6 4 5 8 8 7 7 7 6 7 7 8 8 9 9 9 10 10 9 9 9 9 9 9 10 10 10 9 8 8 7 4 4 4 5 5 5 3 4 5 5 5 6 7 7 10 10 10 9 9 10 10
11 13 10 9 10 7 7 9 8 12 11 13 14 13 13 13 12 13 12 12 12 12 11 11 11 10 11 9 9 12 9 7 7 5 7 7 7 8 8 8 8 8 8 9 10 9 9 10 10 10 10 10 10 9 9 10 10 10 10 10 9 7 4 5 5 5 5 5 5 5 4 3 5 4 5 5 6 6 9 10 10 9 9 9 9
12 14 9 8 7 8 7 7 8 7 10 11 11 11 12 12 12 12 11 10 11 9 9 10 10 11 10 12 9 6 9 10 9 10 9 8 8 8 8 9 9 9 10 10 10 10 10 10 10 10 10 10 10 10 10 10 10 10 10 10 9 8 7 4 3 4 4 4 4 5 5 4 5 4 5 6 5 5 7 9 9 9 9 8 8
10 14 8 8 9 9 8 7 6 5 5 7 12 12 13 13 12 10 10 9 9 11 11 9 8 9 9 9 9 11 9 9 10 11 10 10 9 9 9 10 10 10 10 10 10 10 10 10 10 10 10 10 10 10 10 10 10 10 10 10 9 8 7 4 4 3 4 4 4 4 4 5 5 5 4 4 6 4 5 8 8 8 8 8 7
11 13 11 9 8 11 10 10 9 6 5 6 7 10 10 10 9 9 10 11 9 10 9 8 8 6 8 8 8 9 8 9 12 12 11 11 10 10 10 10 10 10 10 10 10 10 10 10 10 10 10 10 10 10 11 11 11 10 10 10 9 8 7 5 4 4 4 4 3 3 3 3 4 4 4 4 4 4 4 6 7 7 6 7 7
12 12 12 11 11 10 14 11 10 9 9 7 6 8 9 9 9 9 9 8 8 7 7 7 7 7 7 6 6 6 8 10 12 12 11 11 11 11 10 11 11 11 10 10 10 11 11 11 10 10 10 10 10 11 11 11 11 11 10 10 9 8 7 5 4 4 4 3 3 4 4 6 4 5 5 5 5 4 4 6 6 6 6 7 7
8 9 12 13 14 12 13 12 10 10 10 9 9 8 9 8 9 9 10 7 8 8 7 8 7 7 6 6 7 8 7 8 9 10 10 9 8 8 9 11 11 11 11 11 11 11 11 11 11 11 11 11 11 11 11 11 11 11 10 9 8 7 4 2 4 3 2 3 3 4 5 9 3 4 4 4 4 4 4 5 6 6 6 7 7
8 9 10 11 12 13 12 9 10 10 10 9 9 10 9 9 9 9 8 7 8 9 8 8 7 7 7 8 9 8 7 8 8 8 9 9 8 10 8 11 11 11 11 11 11 11 11 11 11 11 12 12 12 12 12 11 11 10 9 8 6 2 3 3 4 3 2 3 3 4 7 8 5 5 5 5 5 4 4 5 6 6 7 7 7
6 9 11 10 11 12 14 11 11 12 11 9 8 9 9 10 8 8 8 8 8 9 9 8 8 7 8 9 9 10 10 9 8 10 8 9 8 7 9 11 12 11 11 11 11 11 11 11 12 12 12 13 13 13 12 11 10 10 8 6 2 3 4 3 3 3 3 2 3 5 9 6 5 5 5 5 4 4 5 6 6 6 7 7 8
10 10 11 11 11 12 13 13 10 12 11 8 6 6 7 10 12 10 8 8 8 9 9 10 9 8 9 9 9 10 9 9 10 11 10 9 8 8 8 9 11 12 11 12 11 11 11 11 11 11 11 11 10 6 7 9 9 8 7 2 3 4 3 3 3 3 3 3 4 7 8 6 4 4 5 5 5 5 5 5 6 6 7 7 8
10 11 11 15 12 11 12 14 13 12 12 9 6 7 9 10 11 11 9 10 10 10 11 11 11 12 10 12 11 9 9 8 9 8 8 10 9 8 7 9 11 11 10 11 11 12 11 11 11 11 11 9 4 4 4 4 5 5 4 3 4 3 3 3 3 3 3 3 3 10 8 5 3 4 5 5 5 5 5 6 6 7 7 7 7
13 12 12 10 12 12 13 13 13 12 11 10 9 9 10 10 10 12 12 12 11 9 13 11 12 13 12 12 10 9 9 8 6 7 6 8 7 7 8 9 9 8 10 9 11 11 12 11 11 11 7 4 4 4 4 4 4 3 3 3 4 3 3 3 3 2 3 3 4 9 9 5 3 2 4 4 5 5 5 6 6 7 7 7 6
10 8 8 10 14 14 11 13 12 11 12 10 10 10 10 11 11 12 13 11 11 13 12 10 10 12 11 10 9 7 8 7 8 8 9 8 9 9 8 8 8 8 10 8 7 8 7 6 6 5 4 4 4 3 3 4 3 3 3 3 3 3 3 3 2 2 2 2 4 8 9 6 3 2 4 5 5 5 5 6 6 7 6 6 6
6 8 11 11 14 14 13 11 12 12 12 11 11 10 11 12 12 13 12 12 12 13 11 9 9 10 10 10 8 8 9 7 9 9 9 9 10 9 9 8 8 8 8 6 6 6 5 5 5 4 4 3 3 3 3 3 3 3 3 3 3 3 3 3 3 2 2 2 3 8 8 8 3 3 4 4 5 6 6 6 6 6 6 5 5
9 11 11 11 13 15 14 12 13 13 15 13 10 10 11 11 12 13 13 12 12 13 10 10 10 10 10 9 9 9 9 8 9 9 9 9 9 8 8 7 7 7 7 5 5 5 5 5 5 4 4 4 4 3 3 3 3 3 3 3 2 2 2 2 2 2 2 3 3 7 8 8 5 4 4 5 6 5 6 6 7 6 6 5 5
8 11 11 10 11 16 17 16 14 14 13 16 16 12 11 12 12 12 13 12 13 12 10 10 9 9 10 10 10 10 10 9 9 9 9 9 9 8 7 7 7 6 6 5 5 5 5 4 4 4 5 4 4 4 4 3 3 3 4 3 3 2 2 2 2 2 2 3 3 6 8 8 6 5 5 5 5 5 5 6 6 6 5 5 5
12 13 10 11 13 14 16 17 16 17 15 15 16 14 12 12 14 12 13 13 13 11 11 10 9 9 10 10 11 10 10 9 10 10 9 9 8 7 7 7 6 6 6 5 6 6 5 5 5 5 5 5 5 4 4 3 3 3 3 4 3 3 3 2 2 2 2 2 3 4 8 9 7 6 6 6 5 5 5 6 6 5 5 6 6
16 11 11 12 11 14 17 18 18 16 16 15 14 14 14 14 16 13 13 12 12 11 11 9 10 9 10 10 11 10 10 10 10 9 10 10 8 7 7 7 7 6 6 6 6 6 6 5 5 5 5 5 5 4 4 3 3 3 3 3 3 3 3 3 2 2 3 2 3 4 6 8 9 7 7 7 6 6 7 7 6 4 4 5 6
12 13 12 11 10 12 15 18 18 16 14 15 14 14 14 15 15 13 13 12 12 11 10 10 10 10 10 11 11 11 10 10 10 10 9 9 8 8 8 7 7 6 6 6 5 5 5 5 5 5 5 5 4 4 3 4 3 3 3 3 3 3 3 3 3 3 3 3 3 4 4 7 9 10 7 9 9 9 8 7 6 4 4 5 5
12 15 12 10 11 14 15 17 17 16 15 16 14 14 14 15 14 12 12 12 12 11 10 10 10 10 11 11 11 11 10 9 10 10 10 9 9 9 8 8 7 7 6 6 6 5 5 4 4 3 4 4 4 4 3 4 4 3 3 3 2 3 3 3 3 3 3 3 4 4 4 5 8 10 11 9 9 9 9 9 7 6 6 5 5
10 12 12 11 13 13 14 16 16 16 17 17 15 14 13 13 12 13 12 11 11 11 11 11 11 10 10 11 11 12 10 10 10 10 9 9 9 9 8 8 7 7 6 7 7 5 5 5 4 3 4 4 4 3 2 3 3 3 3 3 3 3 3 3 3 4 4 3 3 4 4 4 5 8 11 11 10 9 9 9 9 8 7 6 5
7 8 11 13 11 9 10 11 15 17 18 15 14 13 13 12 11 11 11 11 11 12 12 11 11 10 10 12 11 12 11 10 10 10 9 9 9 9 9 8 7 8 6 7 6 6 6 6 6 5 5 5 5 4 4 4 3 3 3 3 2 3 3 3 3 3 4 4 3 3 4 4 4 4 5 11 12 10 9 9 9 9 8 7 5
8 9 13 15 14 11 10 10 14 17 16 17 16 14 12 12 11 11 11 12 12 12 11 11 10 10 10 11 12 12 12 11 10 10 10 9 9 9 8 8 7 8 7 7 7 6 6 7 6 6 5 5 4 4 4 4 4 3 3 3 3 3 3 3 3 3 3 3 3 3 3 3 3 4 4 4 8 11 10 9 9 9 9 8 7
13 13 11 11 14 14 13 14 14 18 17 18 16 13 12 12 11 11 10 12 11 11 11 11 10 10 10 10 12 11 12 11 11 10 10 9 9 9 9 8 9 8 7 7 6 7 7 6 6 6 7 6 5 5 3 4 3 3 2 2 3 3 3 3 4 4 3 4 4 3 3 3 3 3 3 3 4 6 10 9 9 9 10 9 7
13 13 12 12 13 15 14 17 17 19 18 17 16 14 12 11 11 10 11 10 11 10 10 10 10 10 10 10 11 11 12 12 12 11 9 9 9 9 8 9 9 8 8 7 7 7 7 6 6 6 6 7 7 6 4 4 4 3 3 2 2 3 3 3 4 3 3 4 4 4 3 3 4 3 3 3 3 4 7 8 9 10 10 9 7
13 13 13 13 13 13 12 14 14 15 14 14 15 13 11 10 9 8 9 10 11 9 9 9 10 10 10 10 11 12 12 13 12 11 10 9 9 8 8 9 9 8 8 8 8 6 7 7 8 6 5 6 6 7 6 4 4 3 3 2 2 2 2 3 3 3 3 4 4 4 4 4 4 3 3 3 3 3 4 6 7 9 10 8 8
9 12 12 11 10 9 9 11 13 13 13 12 12 11 11 10 8 9 9 10 10 10 9 9 10 9 10 11 12 12 12 13 13 12 11 10 9 9 8 10 9 8 8 8 7 7 7 7 8 7 3 3 5 6 5 5 5 4 3 3 2 1 2 2 3 3 3 3 4 4 3 4 3 3 3 3 2 3 2 2 3 3 4 8 8
7 7 10 10 10 10 9 9 11 11 10 10 9 10 10 10 10 9 9 11 10 10 10 10 10 10 10 11 11 12 12 12 13 13 12 11 10 9 10 10 10 9 9 10 9 9 10 9 8 9 8 3 1 4 6 7 6 5 4 3 2 1 1 2 3 2 3 3 4 4 4 4 3 3 3 2 2 2 2 2 2 2 3 5 7
5 7 8 9 10 11 9 11 9 11 10 10 10 11 11 10 10 12 13 11 12 11 11 12 11 11 11 12 12 11 12 12 12 12 13 11 10 9 9 10 10 10 10 11 10 10 9 9 8 7 9 8 5 5 6 7 8 5 4 3 3 2 2 2 3 4 3 3 4 4 4 4 4 3 3 2 2 2 2 2 2 2 2 2 4
5 5 7 8 9 10 10 9 7 10 11 10 9 10 10 10 10 10 10 9 10 11 12 11 12 10 11 11 11 11 11 12 11 12 11 11 11 9 10 11 11 10 10 9 9 9 10 9 9 8 7 9 7 8 8 9 6 7 6 5 3 3 3 3 4 4 4 4 4 3 4 4 4 3 3 3 3 3 2 2 1 1 1 1 1
5 4 5 6 7 8 8 8 8 9 10 10 9 9 9 8 8 6 8 7 7 7 7 7 8 9 9 10 10 10 11 10 11 11 10 11 10 10 11 10 11 10 10 10 10 11 11 11 12 10 9 7 6 7 10 10 7 7 6 5 4 4 4 4 5 6 5 5 4 4 3 3 3 3 3 3 3 3 2 2 2 1 1 1 1
3 3 3 5 5 6 7 8 8 9 8 9 9 8 7 6 6 3 3 6 5 6 7 5 6 8 9 9 9 10 11 11 11 11 9 10 12 12 10 10 11 11 11 11 12 12 11 11 11 10 10 10 7 9 9 8 4 10 6 7 4 4 3 8 8 7 6 5 6 5 4 4 4 3 3 3 2 2 2 2 2 2 1 1 1
5 5 4 3 3 5 6 7 7 8 8 9 10 9 6 6 5 3 2 3 4 5 7 10 10 9 9 10 11 10 11 11 11 13 12 12 12 11 11 11 11 11 10 10 11 12 13 11 13 12 14 12 11 8 10 8 8 5 4 5 3 3 6 3 8 5 7 6 7 6 6 5 5 5 4 3 1 2 2 3 2 2 2 1 1
8 7 5 4 4 4 4 5 5 6 7 9 10 10 9 9 8 8 9 9 9 10 12 11 9 10 12 8 9 11 11 11 11 12 13 12 13 13 12 11 11 11 11 10 10 10 12 12 13 13 14 12 10 10 9 8 7 7 7 4 2 2 4 6 7 5 6 6 5 7 7 7 6 5 5 4 3 2 2 2 2 2 2 2 2
9 6 5 6 6 4 4 4 4 5 5 7 10 9 9 10 12 12 12 11 12 10 8 7 8 9 8 11 10 11 13 12 11 11 12 13 12 12 12 12 11 11 10 10 11 12 12 12 11 12 11 11 10 10 12 10 6 7 5 5 4 2 2 9 7 4 4 6 6 7 7 7 6 6 5 5 4 4 3 3 3 3 3 3 3
9 6 7 8 9 8 6 4 3 4 3 5 8 9 9 10 10 12 10 11 12 10 8 8 7 7 8 9 8 9 11 12 12 12 12 12 12 12 12 12 12 12 11 11 12 11 10 9 12 13 10 11 11 12 11 10 13 9 8 7 5 2 4 5 3 7 5 7 7 5 5 7 7 7 7 6 6 5 4 4 3 4 4 4 4
10 9 10 10 9 8 7 5 4 4 3 5 6 9 9 9 10 9 10 10 10 9 6 7 8 8 10 9 10 10 10 12 12 12 13 14 12 12 12 12 12 12 10 11 10 12 14 14 13 12 12 12 11 11 10 11 11 10 9 7 5 5 4 3 3 3 5 6 6 9 8 6 6 8 8 7 6 5 4 4 4 4 4 4 4
10 13 14 13 11 9 9 8 6 4 3 4 6 7 9 8 8 10 11 10 9 8 8 7 8 8 9 11 10 10 10 10 12 13 13 14 14 14 12 14 13 12 10 13 11 12 12 12 14 15 14 14 11 11 12 10 11 10 11 9 9 6 4 4 5 5 2 3 5 7 8 10 8 8 8 7 7 6 5 4 4 5 5 5 5
14 17 16 14 13 12 11 10 8 6 5 4 5 7 7 8 9 10 11 11 10 9 8 9 7 8 9 10 10 10 10 11 11 12 14 15 15 14 13 13 13 11 11 13 13 13 13 12 13 14 14 16 13 13 11 9 10 10 11 9 11 12 11 10 10 8 8 7 4 4 6 8 6 6 6 6 6 6 4 3 4 5 5 5 5
Wind_Direction
197 173 161 156 171 183 181 182 179 178 178 179 176 172 169 167 166 164 165 164 163 164 162 162 163 163 162 160 156 154 149 143 137 128 125 122 123 123 124 128 130 126 122 122 116 114 114 109 100 89 78 74 70 64 59 57 55 57 59 59 58 58 58 58 57 51 46 48 55 51 40 78 77 75 72 68 62 53 40 24 344 81 65 60 51
168 176 168 162 172 185 181 182 180 178 178 180 179 176 173 172 171 170 168 168 168 167 168 169 167 168 168 167 163 162 155 150 139 130 127 123 119 117 117 119 122 118 119 115 116 111 104 99 90 80 76 72 71 68 64 60 58 57 58 59 58 58 57 56 53 48 47 45 51 54 49 46 77 79 80 74 66 59 48 27 8 38 65 62 58
150 162 167 165 172 183 185 183 180 181 180 180 179 178 177 176 175 174 172 172 172 171 172 172 174 174 173 172 171 165 157 149 138 133 120 115 110 108 114 114 111 113 110 111 109 108 101 94 93 88 80 77 74 69 66 64 64 60 59 59 61 61 61 58 54 51 45 43 38 76 89 65 53 83 82 79 75 67 55 43 28 43 61 57 61
151 163 165 157 174 182 190 185 181 183 183 182 180 178 180 177 179 178 177 180 182 178 178 178 179 180 176 176 172 164 160 149 138 127 119 110 104 103 107 109 109 110 111 111 104 104 105 100 93 93 91 84 80 72 65 62 63 66 65 63 63 66 66 62 60 55 48 38 16 294 94 92 82 72 85 80 75 73 67 61 55 53 56 61 60
162 163 166 164 176 185 193 189 183 184 186 185 185 181 180 177 181 180 182 186 190 190 185 185 186 185 179 174 168 165 159 147 139 127 117 110 105 102 104 111 113 112 108 103 101 104 101 95 88 84 86 86 79 73 68 63 60 60 63 67 67 67 67 67 64 64 53 36 353 271 90 88 85 75 87 84 77 73 72 70 64 57 54 57 56
167 166 167 169 176 179 193 190 184 184 184 189 187 185 183 180 181 181 184 186 192 191 191 191 189 187 179 171 161 158 151 142 138 130 120 110 102 104 110 115 114 114 110 101 94 91 88 88 86 85 85 84 81 75 68 63 61 60 58 60 63 62 57 59 61 62 67 59 244 97 96 89 87 88 80 90 83 77 76 72 70 65 61 56 64
171 167 172 173 179 179 187 187 182 182 182 185 184 187 180 182 182 182 184 188 192 189 190 190 189 182 172 161 156 152 149 141 135 128 123 119 113 100 87 100 104 102 100 98 90 78 80 89 88 88 87 85 82 78 74 72 66 64 61 59 58 55 50 46 37 28 342 235 84 89 96 89 90 88 82 77 84 81 75 75 70 71 63 52 46
174 170 175 178 184 163 183 180 183 181 179 179 181 178 179 181 181 182 183 186 187 188 187 187 177 168 162 159 153 151 143 137 133 131 136 131 121 116 116 87 112 106 98 89 80 88 93 92 94 93 89 87 85 86 84 78 73 68 67 64 61 57 50 46 31 16 326 82 63 59 84 94 98 91 78 81 81 83 78 73 75 72 67 50 33
179 175 176 180 186 153 180 184 180 179 177 175 175 176 175 178 178 178 176 176 181 185 177 174 167 163 159 153 152 144 143 143 138 124 102 103 151 172 173 113 151 129 125 107 99 104 106 100 97 96 93 91 90 87 85 81 77 71 69 68 62 56 52 44 32 328 104 64 71 72 52 104 107 95 84 84 84 76 62 78 84 74 63 51 54
176 178 180 183 184 156 184 188 180 176 172 171 169 167 169 173 171 171 168 169 168 170 169 164 165 162 158 153 152 150 149 150 137 118 119 111 175 316 219 117 112 130 142 144 140 122 139 102 98 95 94 94 91 88 85 83 80 78 75 71 65 57 48 38 11 44 67 75 78 70 44 319 100 81 94 92 88 81 76 63 61 58 64 61 56
175 178 185 185 184 163 190 184 180 171 171 167 167 166 166 166 168 169 167 166 167 163 167 167 166 168 165 160 158 156 168 164 123 125 157 192 196 203 197 151 147 136 146 144 150 145 130 103 100 99 98 96 94 91 89 86 84 80 75 71 66 58 46 20 320 78 61 65 65 69 81 278 96 93 89 86 88 87 82 77 72 75 73 67 62
176 179 184 186 153 170 189 188 178 167 169 167 166 168 165 163 171 173 169 169 168 172 176 175 176 177 170 176 179 176 168 177 146 161 207 199 199 211 183 172 160 162 154 165 166 152 119 113 108 106 103 101 97 94 92 89 87 83 77 70 66 59 46 22 44 61 57 60 56 36 46 27 103 95 88 88 83 84 83 82 78 74 71 69 64
179 180 184 183 178 180 200 192 183 172 171 170 175 178 169 173 175 178 184 177 178 186 188 190 190 195 197 192 200 202 168 229 214 170 202 209 190 197 192 182 176 170 167 160 158 138 127 121 119 115 112 108 104 101 97 95 92 86 79 74 68 60 51 26 67 63 58 49 51 41 50 90 72 59 101 86 78 72 78 80 76 73 70 69 68
173 185 186 180 181 171 209 200 190 177 180 179 186 185 187 179 181 191 193 197 197 193 193 197 207 209 216 213 187 223 172 193 194 170 180 191 194 185 186 179 172 170 169 159 146 137 131 128 125 122 119 114 110 106 102 98 93 87 80 74 67 59 36 65 59 66 60 56 49 37 37 88 71 56 77 81 77 69 76 78 77 74 71 68 66
181 185 179 183 179 183 200 213 198 186 182 183 190 187 186 191 193 197 202 201 210 204 205 213 216 219 215 224 212 153 172 185 189 194 180 184 190 185 181 178 174 172 162 151 145 139 138 134 129 125 120 117 113 107 102 97 91 85 79 73 65 53 4 81 63 75 65 53 55 50 54 75 58 64 67 59 62 55 69 77 74 73 70 73 76
190 189 183 185 185 188 189 199 206 195 197 197 192 186 199 200 194 190 200 210 214 205 202 203 209 222 207 223 206 152 187 188 190 194 182 182 184 182 175 173 169 161 155 148 144 142 137 131 127 123 119 115 111 105 100 96 91 85 80 75 66 54 33 359 87 72 73 56 51 54 78 72 33 65 75 61 48 42 53 72 72 71 73 73 74
191 194 190 190 192 192 192 195 195 186 200 212 201 191 191 184 187 194 201 208 208 201 192 189 211 204 207 210 214 168 173 182 196 188 181 184 185 181 178 172 165 159 152 146 142 139 133 129 125 120 116 110 105 101 97 92 88 84 79 73 64 59 40 359 86 71 65 48 39 30 49 68 43 67 49 53 58 41 27 63 68 70 72 76 73
193 192 193 194 196 200 198 198 195 198 199 193 196 185 178 180 181 193 208 212 194 192 187 185 203 197 207 196 179 150 164 183 191 185 183 185 184 181 176 170 163 158 152 146 140 136 131 128 123 118 112 107 102 97 92 87 82 78 72 67 63 53 45 7 78 79 66 43 58 37 61 10 43 52 51 51 50 45 32 51 63 67 70 71 71
193 196 200 201 201 199 202 200 197 200 202 200 198 183 181 176 183 190 201 204 187 186 182 182 189 193 187 154 139 140 151 170 180 182 183 179 179 173 174 169 162 157 151 143 139 135 131 127 122 117 112 107 101 95 89 83 80 75 70 66 63 53 17 46 64 68 68 72 53 52 33 354 59 63 44 55 54 42 43 58 69 72 71 70 72
205 203 206 206 204 203 204 200 201 201 201 200 197 191 175 174 180 183 194 194 184 177 176 174 172 163 145 140 138 143 157 180 175 178 183 172 164 180 168 167 161 156 151 145 139 134 130 126 122 117 113 107 101 96 92 88 82 76 71 65 51 341 73 69 60 58 62 56 22 62 13 9 37 73 63 56 57 53 63 66 71 72 73 72 69
208 210 210 206 205 206 204 204 202 201 201 200 198 194 172 169 177 182 185 186 175 170 164 154 143 140 145 140 141 177 189 188 174 188 163 176 163 166 164 167 162 156 151 148 144 138 133 129 124 118 112 106 97 89 86 89 86 81 76 61 6 73 59 58 47 63 57 57 48 46 3 16 48 71 74 68 69 77 76 76 79 77 77 78 71
204 209 212 211 205 206 204 204 199 198 197 196 189 183 176 182 195 191 192 182 169 165 164 178 172 173 149 148 181 191 191 188 186 187 180 170 161 161 166 166 160 155 152 150 147 143 140 135 129 122 118 114 116 115 97 81 83 87 79 57 84 79 72 63 59 70 49 65 46 12 357 18 54 82 83 84 92 92 87 84 83 84 86 82 77
208 208 210 207 206 204 204 204 203 194 195 194 184 188 190 193 198 199 198 192 183 180 190 185 186 193 176 188 193 190 191 181 186 177 186 168 162 164 155 153 158 151 150 148 147 144 141 136 130 125 122 123 126 119 120 125 112 125 142 102 89 84 84 80 85 79 64 34 63 2 0 20 29 92 103 107 106 102 99 93 90 91 88 82 80
209 204 204 201 202 204 202 204 201 193 191 195 191 194 194 195 202 204 204 202 198 190 200 190 192 195 186 191 190 186 182 186 107 119 123 163 145 154 145 138 141 142 141 144 142 141 133 124 124 125 131 153 134 133 133 139 141 133 112 112 106 108 107 103 95 94 93 46 48 358 354 18 29 109 116 114 108 111 106 100 95 90 83 83 80
207 202 203 202 200 203 199 202 198 196 194 196 191 196 193 197 203 206 206 203 203 201 199 184 183 187 179 189 191 170 178 184 169 171 181 177 171 172 164 168 167 161 162 158 155 142 145 144 141 160 154 143 142 134 138 136 132 131 114 107 112 114 110 106 106 111 106 91 51 356 354 9 27 118 124 124 121 119 111 109 102 95 89 86 81
184 200 206 203 199 199 199 199 197 199 195 202 197 196 192 197 200 203 201 202 201 202 195 183 182 179 182 189 174 170 181 180 176 180 185 181 176 177 177 176 171 164 176 163 160 162 159 159 159 161 153 146 136 132 130 128 127 120 110 100 109 116 113 111 115 115 117 109 72 359 359 357 25 86 123 125 133 125 122 104 99 92 95 92 88
201 212 206 206 198 196 198 198 202 205 205 207 201 196 198 199 201 203 200 200 201 200 188 187 186 180 182 178 177 182 186 184 180 182 184 180 179 177 175 174 170 169 179 171 162 163 167 160 162 155 146 137 129 125 120 114 113 115 111 109 102 108 112 114 116 119 119 114 82 10 3 2 18 95 105 124 127 133 123 123 105 98 95 93 84
213 216 210 204 193 196 196 196 202 200 203 208 208 204 199 199 202 202 200 199 201 199 189 190 180 179 182 183 186 185 186 186 184 184 184 184 184 178 174 171 174 172 174 173 165 170 167 162 155 146 146 143 139 139 133 128 122 122 119 117 116 115 108 107 104 110 122 128 115 30 3 11 34 70 96 108 110 120 121 116 118 109 113 94 91
226 218 206 202 200 195 194 197 200 201 202 204 207 208 201 196 203 201 198 200 204 196 191 182 180 183 184 183 186 186 188 188 185 184 182 187 180 173 173 176 175 172 173 173 174 172 168 162 158 160 158 154 150 147 142 136 138 127 127 125 128 115 116 119 114 109 121 129 120 55 7 18 47 65 88 94 106 112 129 122 106 114 107 106 93
227 219 208 209 202 192 195 196 198 200 201 201 206 207 205 202 207 199 196 194 199 195 185 183 187 183 185 188 188 191 190 188 183 184 182 185 177 173 177 178 178 174 177 178 179 175 170 165 164 162 160 157 157 145 149 136 123 121 129 131 132 132 129 127 128 134 128 124 120 110 33 20 28 69 77 87 91 96 92 101 112 109 112 117 107
226 224 217 210 199 193 197 199 200 199 199 203 204 207 203 205 200 194 194 193 193 190 185 189 188 188 189 186 189 194 190 189 185 182 182 180 177 178 184 178 181 178 181 179 174 178 169 170 167 165 164 163 153 148 157 139 134 129 127 137 134 137 135 136 135 136 135 129 131 122 91 44 36 33 74 84 85 85 84 88 92 105 114 100 107
216 222 217 206 195 197 197 200 200 198 200 204 204 208 205 205 197 193 196 193 190 192 190 191 190 190 187 182 190 192 192 190 185 180 183 179 181 182 183 180 185 175 181 175 169 170 166 153 152 154 151 152 143 152 155 151 145 136 136 134 144 143 144 142 144 143 135 131 136 138 127 100 54 42 41 80 89 85 86 85 88 86 87 97 103
220 221 214 203 201 196 200 202 201 199 201 204 204 208 206 202 194 194 194 188 190 191 193 194 192 189 186 185 190 191 192 192 187 181 181 180 180 179 181 182 181 174 175 166 160 157 151 148 145 149 149 144 147 147 148 150 140 139 146 144 146 143 142 150 144 143 142 145 142 138 134 123 108 69 47 47 72 83 83 79 75 72 79 92 91
227 213 210 212 202 195 195 197 199 203 203 204 205 205 206 202 197 194 195 187 193 194 196 194 192 190 187 187 189 191 192 194 185 181 184 183 182 183 180 179 177 168 163 160 168 168 164 160 157 165 161 168 164 161 169 161 142 141 144 145 154 149 151 153 147 142 148 146 145 139 139 140 133 118 87 56 50 65 74 75 73 71 69 77 95
231 224 209 213 204 197 186 196 194 201 199 206 206 206 204 200 196 197 196 191 194 197 196 194 191 192 188 190 191 191 191 192 185 180 187 187 181 183 182 180 168 166 167 171 172 169 166 165 165 169 165 175 169 166 178 161 149 145 142 154 150 148 157 145 141 140 148 142 146 142 141 136 130 126 127 114 70 48 56 62 65 67 69 74 74
229 226 220 206 212 205 191 200 192 201 201 203 206 205 205 200 200 199 198 192 197 199 198 196 193 192 191 190 189 190 189 190 186 186 186 187 184 184 184 175 162 166 169 168 173 171 167 166 172 171 166 175 168 171 176 154 143 134 131 143 139 162 156 152 148 147 143 152 145 146 145 130 136 113 110 115 100 64 51 58 60 57 57 58 64
227 225 219 205 210 206 199 202 201 201 204 203 204 207 207 204 202 199 200 194 201 202 201 198 194 195 193 192 186 187 187 191 190 188 186 184 187 185 180 167 163 169 168 169 177 175 167 166 168 178 183 172 174 166 167 154 132 119 118 126 140 164 162 157 158 145 149 145 141 141 131 116 103 122 129 112 121 118 70 64 65 54 46 49 56
225 223 221 213 212 208 202 203 207 203 203 204 203 202 204 203 202 201 199 202 205 207 205 199 200 198 194 195 182 186 191 191 189 186 192 187 188 184 171 161 167 170 167 171 180 171 171 173 167 176 179 174 178 173 167 141 120 123 117 120 145 172 157 161 148 159 161 149 149 145 141 139 137 128 121 120 125 125 130 101 90 72 45 43 51
226 223 222 221 215 208 203 203 205 201 201 203 200 200 200 201 202 201 200 208 208 210 207 206 205 200 201 195 183 189 191 189 186 185 191 186 186 182 168 167 170 171 168 173 173 169 169 179 171 163 165 185 184 176 156 131 119 110 112 115 127 134 157 158 167 182 158 157 146 141 145 146 139 138 132 142 134 129 125 140 141 124 82 46 49
233 229 224 217 214 214 210 207 204 201 198 198 191 195 196 199 196 197 209 211 209 207 209 212 205 207 204 195 191 191 190 188 186 187 191 187 186 182 170 165 174 173 173 177 177 179 175 169 171 162 165 161 175 141 136 134 117 106 105 102 97 112 150 178 196 180 174 156 157 168 161 153 152 143 142 145 133 124 122 126 126 125 121 87 59
244 234 224 218 213 214 207 213 200 199 198 196 198 195 197 200 203 207 212 204 204 204 206 210 209 210 203 198 196 194 193 187 187 186 193 188 187 174 167 169 177 181 182 185 178 171 170 170 162 162 166 167 174 166 159 145 137 122 116 118 116 123 137 195 196 194 192 181 177 183 167 169 160 157 159 137 124 115 116 109 116 120 116 135 122
257 232 230 226 221 216 216 212 194 197 204 204 201 202 206 203 201 211 213 208 203 202 210 207 209 206 204 199 199 195 194 191 190 191 191 186 184 174 174 177 180 185 186 176 166 159 160 165 161 162 181 179 175 178 169 165 183 179 161 155 149 153 164 200 199 196 201 194 194 183 182 176 161 156 153 146 129 124 104 103 95 100 105 109 98
303 272 257 241 226 217 220 213 204 197 202 202 201 206 207 209 209 216 208 214 218 221 224 222 210 209 206 200 199 197 198 197 192 191 190 190 185 178 183 178 184 180 175 175 172 170 174 172 174 175 169 186 178 180 185 205 186 175 159 147 181 174 176 212 207 208 198 195 193 186 192 171 159 165 157 152 152 130 104 91 93 80 87 79 103
305 284 256 248 242 230 222 213 211 203 202 200 203 205 204 204 198 205 172 213 229 209 213 213 209 211 212 203 205 204 199 199 194 192 192 190 188 187 181 184 187 186 184 176 177 178 174 178 180 183 170 169 184 190 205 208 216 151 174 215 169 206 202 210 195 191 189 194 199 197 186 186 169 172 184 171 155 132 120 107 116 117 90 71 97
360 348 328 300 268 259 236 218 215 206 203 199 196 197 183 186 196 218 268 237 255 241 221 228 220 213 215 210 210 202 203 203 198 196 196 194 192 189 187 188 187 188 189 184 179 183 179 180 178 180 184 183 179 179 200 206 227 251 202 141 138 216 234 121 163 183 176 198 208 208 196 193 187 190 192 181 178 161 147 134 128 126 145 153 151
12 360 346 342 329 313 276 237 225 213 205 202 194 195 204 203 200 202 213 220 229 220 223 222 213 211 213 212 205 204 203 206 204 199 199 196 195 193 189 186 188 188 193 191 181 175 180 179 185 189 191 197 176 173 184 205 225 235 260 303 336 243 180 147 166 193 170 208 198 203 207 204 200 198 202 190 194 192 170 154 148 149 154 174 168
2 341 1 15 10 344 321 282 251 239 212 202 187 191 202 203 205 205 208 211 220 226 220 214 210 207 200 203 201 196 201 205 206 203 202 202 200 196 194 192 191 191 191 190 186 185 181 184 181 193 196 190 186 184 185 186 196 251 240 246 272 245 280 143 198 134 184 191 211 207 212 206 205 211 211 206 195 209 183 180 165 168 165 177 176
350 357 16 23 21 8 348 320 282 255 221 198 198 202 207 207 208 211 213 219 219 224 204 203 203 202 199 202 200 201 200 202 204 203 204 204 205 202 199 195 194 194 189 197 192 184 179 183 185 192 191 195 195 195 188 177 186 202 198 217 241 272 268 301 250 197 207 177 188 195 213 203 209 217 217 211 202 207 206 182 177 177 180 172 181
9 16 23 24 19 11 2 348 318 293 265 208 211 210 217 219 215 216 221 227 228 227 221 199 204 193 198 201 202 199 197 202 205 203 201 204 204 206 202 202 199 197 192 199 198 186 184 180 181 186 194 196 201 205 195 190 193 193 164 207 205 208 207 258 301 292 232 207 185 179 187 183 217 224 216 211 206 201 205 190 173 181 187 176 178
10 24 29 25 19 11 7 358 345 323 303 243 226 225 222 226 228 228 229 232 225 228 226 216 206 203 203 204 200 198 197 197 202 205 201 203 205 204 205 204 204 200 194 201 197 188 190 187 185 188 190 195 199 200 206 195 192 197 183 172 181 178 191 214 224 213 285 272 236 185 177 173 198 212 200 200 200 201 202 187 185 190 192 184 179
20 25 23 21 16 14 6 2 359 342 325 285 250 239 233 233 240 240 237 236 231 230 228 227 218 209 211 208 204 202 197 198 198 202 203 202 205 204 205 203 205 204 200 203 203 197 194 190 188 189 192 196 198 198 206 205 189 196 184 187 189 181 185 189 193 194 201 196 206 189 177 189 199 170 185 185 185 195 190 184 195 192 192 185 178